Location: Asheville, NC
(35.6000°N, 82.5500°W)
Time: 07:00:42
(UTC-05:00)

Vanguard 1 Rocket - Pass Details

Date: 18 February 2018
Orbit: 655 x 4222 km, 34.3° (Epoch: 18 February)

Event Time Altitude Azimuth Distance (km) Brightness Sun altitude
Rises 05:29:18 0° 287° (WNW) 8,470 - -21.9°
Reaches altitude 10° 05:35:28 10° 284° (WNW) 7,383 - -20.6°
Exits shadow 05:41:53 22° 280° (W) 6,206 11.0 -19.3°
Maximum altitude 05:59:04 58° 214° (SW) 3,529 10.1 -15.8°
Drops below altitude 10° 06:12:51 10° 139° (SE) 4,582 11.7 -13.0°
Sets 06:15:42 0° 135° (SE) 5,217 12.1 -12.4°
